Simultaneous Nadir Overpasses (SNOs) Predictions

Prediction of SNOs between GOES-14 and NPP Satellite Orbit:

Table of predicted SNOs for the next 14.0 days since TLE Epoch: 3/5/2022
Index Date Time (GOES-14) GOES-14 Lat,Lon NPP Lat,Lon Distance(km) Time Diff (sec)
1 03/05/2022 20:36:14 -0.08,-104.42 -0.74,-107.29 327.81 80
2 03/06/2022 20:14:49 -0.08,-104.41 0.28,-102.76 187.95 80
3 03/08/2022 08:36:39 0.08,-104.60 0.82,-108.05 392.32 80
4 03/09/2022 08:20:33 0.08,-104.61 -0.13,-103.51 125.02 80
5 03/10/2022 20:42:30 -0.09,-104.44 -1.06,-108.81 497.54 80
6 03/11/2022 20:21:05 -0.09,-104.44 -0.04,-104.28 18.13 80
7 03/14/2022 08:24:09 0.10,-104.61 0.17,-105.03 47.85 80
8 03/15/2022 08:08:04 0.10,-104.61 -0.85,-100.50 469.48 80
9 03/16/2022 20:30:00 -0.10,-104.46 -0.39,-105.79 151.74 80
10 03/17/2022 20:08:35 -0.10,-104.45 0.63,-101.26 363.94 80
